This is the latest recevied weather packets stored in our database for station/object KE6LRO. If no packets are shown the sender has not sent any weather packets the latest 10 day(s).
| Time | Temp. | Humidity | Pressure | Rain* | Wind** | Luminosity | Snow |
|---|---|---|---|---|---|---|---|
| 1778114482 | 21.67° C | 34% | 1015.6 hPa | 0 mm | - | 130 W/m² | - |
| 1778114178 | 21.67° C | 33% | 1015.5 hPa | 0 mm | - | 155 W/m² | - |
| 1778113873 | 21.67° C | 33% | 1015.6 hPa | 0 mm | - | 147 W/m² | - |
| 1778113570 | 21.67° C | 33% | 1015.6 hPa | 0 mm | - | 130 W/m² | - |
| 1778113266 | 21.67° C | 34% | 1015.6 hPa | 0 mm | - | 138 W/m² | - |
| 1778112962 | 21.67° C | 34% | 1015.6 hPa | 0 mm | - | 151 W/m² | - |
| 1778112660 | 22.22° C | 33% | 1015.4 hPa | 0 mm | - | 157 W/m² | - |
| 1778112356 | 22.22° C | 32% | 1015.5 hPa | 0 mm | - | 173 W/m² | - |
| 1778112052 | 22.22° C | 36% | 1015.6 hPa | 0 mm | - | 182 W/m² | - |
| 1778111750 | 22.22° C | 31% | 1015.5 hPa | 0 mm | - | 210 W/m² | - |
| 1778111444 | 22.78° C | 31% | 1015.6 hPa | 0 mm | - | 170 W/m² | - |
| 1778111142 | 22.78° C | 32% | 1015.4 hPa | 0 mm | - | 197 W/m² | - |
| 1778110839 | 22.78° C | 31% | 1015.4 hPa | 0 mm | - | 261 W/m² | - |
| 1778110536 | 22.78° C | 32% | 1015.6 hPa | 0 mm | - | 216 W/m² | - |
| 1778110233 | 22.78° C | 32% | 1015.3 hPa | 0 mm | - | 261 W/m² | - |
| 1778109929 | 22.22° C | 33% | 1015.4 hPa | 0 mm | - | 298 W/m² | - |
| 1778109619 | 22.78° C | 34% | 1015.4 hPa | 0 mm | - | 201 W/m² | - |
| 1778109317 | 22.22° C | 34% | 1015.4 hPa | 0 mm | - | 251 W/m² | - |
| 1778109014 | 22.22° C | 34% | 1015.3 hPa | 0 mm | - | 229 W/m² | - |
| 1778108710 | 22.78° C | 35% | 1015.4 hPa | 0 mm | - | 241 W/m² | - |
| 1778108408 | 22.22° C | 35% | 1015.4 hPa | 0 mm | - | 366 W/m² | - |
| 1778108104 | 22.22° C | 36% | 1015.4 hPa | 0 mm | - | 213 W/m² | - |
| 1778107801 | 22.78° C | 32% | 1015.5 hPa | 0 mm | - | 171 W/m² | - |
| 1778107498 | 22.22° C | 33% | 1015.7 hPa | 0 mm | - | 263 W/m² | - |
| 1778107194 | 22.22° C | 34% | 1015.6 hPa | 0 mm | - | 157 W/m² | - |
* Rain latest hour (hover to see other rain measurements)
** Current wind speed in m/s (hover to see current wind gust speed)